Starlink 30949

operational
NORAD ID: 58415 Int'l Des: 2023-180 Owner: SPXS Country: US Constellation: starlink
LEOCIRCULAR

Starlink 30949について

説明を読み込み中...

リアルタイム位置

3D地球を読み込み中...

次回通過

高度履歴

Altitude vs Time

uPlot chart will show altitude changes over time

軌道要素

1 58415U 23180P 25300.59817190 .00000387 00000-0 43702-4 0 9995
2 58415 43.0028 59.2685 0001274 270.2543 89.8153 15.02532999107562
Epoch: Oct 27, 2025 • Age: 20 hours

現在のステータス

高度 563.8 km
速度 7.58 km/s
衛星直下点 -21.98°S, 66.5°E
打ち上げ日 Nov 22, 2023
運用期間 1.9 years
タイプ internet

技術仕様

分類 Payload
質量 730.00 kg
乾燥質量 700.00 kg
総質量 730.00 kg
長さ 0.30 m
直径 4.10 m
スパン 29.00 m
形状 Box + pan
製造者 SPXS
バスタイプ Starlink V2M
フェーズステータス In Orbit
所有者/国 SPXS/US

大規模コンステレーション

Loading constellations...